• în Republica Moldova
  • Lista ţărilor
  • Pe 7 zile
  • Temperatura apei
  • Hartă satelitară
  • Meteo pe hartă
  • Widget-uri
  • user-avatar
    Intrare

    Meteo pe oră la Mingachevir

    Astăzi, 22 August, Marţi

    Timp Temperatura Precipitaţii Vânt Presiune Umiditate
    00:00 +28°C° 0 mm 2 m/s 749 mmHg 43%
    01:00 +28°C° 0 mm 1 m/s 749 mmHg 44%
    02:00 +27°C° 0 mm 1 m/s 749 mmHg 46%
    03:00 +27°C° 0 mm 1 m/s 749 mmHg 47%
    04:00 +27°C° 0 mm 1 m/s 749 mmHg 47%
    05:00 +27°C° 0 mm 1 m/s 749 mmHg 46%
    06:00 +27°C° 0 mm 1 m/s 749 mmHg 45%
    07:00 +29°C° 0 mm 1 m/s 749 mmHg 39%
    08:00 +31°C° 0 mm 2 m/s 749 mmHg 32%
    09:00 +35°C° 0 mm 2 m/s 749 mmHg 26%
    10:00 +36°C° 0 mm 2 m/s 748 mmHg 24%
    11:00 +37°C° 0 mm 2 m/s 748 mmHg 22%
    12:00 +38°C° 0 mm 2 m/s 747 mmHg 20%
    13:00 +39°C° 0 mm 3 m/s 747 mmHg 19%
    14:00 +40°C° 0 mm 3 m/s 747 mmHg 18%
    15:00 +42°C° 0 mm 3 m/s 746 mmHg 18%
    16:00 +40°C° 0 mm 3 m/s 747 mmHg 19%
    17:00 +39°C° 0 mm 3 m/s 747 mmHg 21%
    18:00 +38°C° 0 mm 3 m/s 747 mmHg 23%
    19:00 +36°C° 0 mm 4 m/s 747 mmHg 25%
    20:00 +34°C° 0 mm 4 m/s 748 mmHg 28%
    21:00 +33°C° 0 mm 4 m/s 748 mmHg 30%
    22:00 +32°C° 0 mm 4 m/s 748 mmHg 33%
    23:00 +30°C° 0 mm 3 m/s 748 mmHg 35%

    Mâine, 23 August, Miercuri

    Timp Temperatura Precipitaţii Vânt Presiune Umiditate
    00:00 +29°C° 0 mm 2 m/s 749 mmHg 38%
    01:00 +28°C° 0 mm 2 m/s 749 mmHg 39%
    02:00 +27°C° 0 mm 1 m/s 749 mmHg 41%
    03:00 +27°C° 0 mm 1 m/s 749 mmHg 43%
    04:00 +27°C° 0 mm 1 m/s 749 mmHg 43%
    05:00 +27°C° 0 mm 1 m/s 749 mmHg 43%
    06:00 +27°C° 0 mm 1 m/s 749 mmHg 43%
    07:00 +29°C° 0 mm 2 m/s 749 mmHg 36%
    08:00 +32°C° 0 mm 2 m/s 750 mmHg 28%
    09:00 +35°C° 0 mm 3 m/s 750 mmHg 20%
    10:00 +37°C° 0 mm 4 m/s 749 mmHg 19%
    11:00 +39°C° 0 mm 5 m/s 749 mmHg 18%
    12:00 +41°C° 0 mm 5 m/s 749 mmHg 16%
    13:00 +41°C° 0 mm 6 m/s 748 mmHg 17%
    14:00 +41°C° 0 mm 6 m/s 748 mmHg 17%
    15:00 +43°C° 0 mm 7 m/s 748 mmHg 18%
    16:00 +40°C° 0 mm 7 m/s 748 mmHg 19%
    17:00 +39°C° 0 mm 6 m/s 748 mmHg 21%
    18:00 +38°C° 0 mm 6 m/s 748 mmHg 22%
    19:00 +35°C° 0 mm 5 m/s 749 mmHg 25%
    20:00 +31°C° 0 mm 3 m/s 750 mmHg 28%
    21:00 +29°C° 0 mm 2 m/s 750 mmHg 31%
    22:00 +29°C° 0 mm 2 m/s 750 mmHg 32%
    23:00 +28°C° 0 mm 1 m/s 751 mmHg 34%

    Poimâine, 24 August, Joi

    Timp Temperatura Precipitaţii Vânt Presiune Umiditate
    00:00 +27°C° 0 mm 1 m/s 751 mmHg 35%
    01:00 +27°C° 0 mm 1 m/s 751 mmHg 35%
    02:00 +27°C° 0 mm 1 m/s 751 mmHg 36%
    03:00 +27°C° 0 mm 2 m/s 751 mmHg 36%
    04:00 +27°C° 0 mm 2 m/s 752 mmHg 37%
    05:00 +27°C° 0 mm 2 m/s 752 mmHg 37%
    06:00 +27°C° 0 mm 2 m/s 752 mmHg 38%
    07:00 +29°C° 0 mm 2 m/s 753 mmHg 32%
    08:00 +31°C° 0 mm 2 m/s 753 mmHg 27%
    09:00 +35°C° 0 mm 2 m/s 753 mmHg 22%
    10:00 +36°C° 0 mm 3 m/s 753 mmHg 19%
    11:00 +38°C° 0 mm 4 m/s 752 mmHg 17%
    12:00 +40°C° 0 mm 5 m/s 752 mmHg 14%
    13:00 +41°C° 0 mm 6 m/s 752 mmHg 14%
    14:00 +41°C° 0 mm 6 m/s 751 mmHg 14%
    15:00 +41°C° 0 mm 7 m/s 751 mmHg 14%
    16:00 +40°C° 0 mm 7 m/s 751 mmHg 16%
    17:00 +39°C° 0 mm 6 m/s 751 mmHg 18%
    18:00 +38°C° 0 mm 6 m/s 752 mmHg 20%
    19:00 +34°C° 0 mm 6 m/s 752 mmHg 24%
    20:00 +32°C° 0 mm 5 m/s 753 mmHg 27%
    21:00 +29°C° 0 mm 4 m/s 753 mmHg 30%
    22:00 +29°C° 0 mm 4 m/s 753 mmHg 32%
    23:00 +28°C° 0 mm 3 m/s 754 mmHg 35%

    25 August, Vineri

    Timp Temperatura Precipitaţii Vânt Presiune Umiditate
    00:00 +27°C° 0 mm 3 m/s 754 mmHg 38%
    01:00 +26°C° 0 mm 2 m/s 754 mmHg 40%
    02:00 +26°C° 0 mm 2 m/s 754 mmHg 41%
    03:00 +25°C° 0 mm 1 m/s 754 mmHg 42%
    04:00 +25°C° 0 mm 1 m/s 754 mmHg 42%
    05:00 +25°C° 0 mm 1 m/s 754 mmHg 41%
    06:00 +25°C° 0 mm 1 m/s 754 mmHg 41%
    07:00 +28°C° 0 mm 1 m/s 754 mmHg 35%
    08:00 +30°C° 0 mm 1 m/s 754 mmHg 29%
    09:00 +32°C° 0 mm 2 m/s 754 mmHg 22%
    10:00 +35°C° 0 mm 2 m/s 754 mmHg 19%
    11:00 +36°C° 0 mm 3 m/s 753 mmHg 17%
    12:00 +38°C° 0 mm 3 m/s 753 mmHg 14%
    13:00 +38°C° 0 mm 4 m/s 752 mmHg 13%
    14:00 +40°C° 0 mm 4 m/s 752 mmHg 13%
    15:00 +41°C° 0 mm 5 m/s 752 mmHg 12%
    16:00 +40°C° 0 mm 5 m/s 752 mmHg 14%
    17:00 +38°C° 0 mm 4 m/s 752 mmHg 15%
    18:00 +37°C° 0 mm 4 m/s 752 mmHg 16%
    19:00 +34°C° 0 mm 4 m/s 752 mmHg 21%
    20:00 +32°C° 0 mm 4 m/s 753 mmHg 25%
    21:00 +29°C° 0 mm 4 m/s 753 mmHg 29%
    22:00 +28°C° 0 mm 4 m/s 753 mmHg 33%
    23:00 +28°C° 0 mm 3 m/s 753 mmHg 36%

    26 August, Sâmbătă

    Timp Temperatura Precipitaţii Vânt Presiune Umiditate
    00:00 +27°C° 0 mm 2 m/s 754 mmHg 40%
    01:00 +26°C° 0 mm 2 m/s 753 mmHg 41%
    02:00 +26°C° 0 mm 2 m/s 753 mmHg 41%
    03:00 +25°C° 0 mm 1 m/s 753 mmHg 42%
    04:00 +25°C° 0 mm 1 m/s 754 mmHg 41%
    05:00 +25°C° 0 mm 1 m/s 754 mmHg 40%
    06:00 +25°C° 0 mm 1 m/s 754 mmHg 39%
    07:00 +28°C° 0 mm 1 m/s 754 mmHg 34%
    08:00 +30°C° 0 mm 2 m/s 754 mmHg 29%
    09:00 +33°C° 0 mm 3 m/s 753 mmHg 24%
    10:00 +35°C° 0 mm 3 m/s 753 mmHg 22%
    11:00 +36°C° 0 mm 4 m/s 752 mmHg 19%
    12:00 +37°C° 0 mm 4 m/s 752 mmHg 17%
    13:00 +38°C° 0 mm 4 m/s 751 mmHg 16%
    14:00 +39°C° 0 mm 5 m/s 751 mmHg 16%
    15:00 +40°C° 0 mm 5 m/s 751 mmHg 15%
    16:00 +39°C° 0 mm 5 m/s 751 mmHg 16%
    17:00 +37°C° 0 mm 4 m/s 751 mmHg 18%
    18:00 +36°C° 0 mm 4 m/s 751 mmHg 19%
    19:00 +34°C° 0 mm 4 m/s 752 mmHg 23%
    20:00 +32°C° 0 mm 5 m/s 752 mmHg 27%
    21:00 +29°C° 0 mm 5 m/s 753 mmHg 30%
    22:00 +28°C° 0 mm 4 m/s 752 mmHg 33%
    23:00 +28°C° 0 mm 3 m/s 752 mmHg 36%

    27 August, Duminică

    Timp Temperatura Precipitaţii Vânt Presiune Umiditate
    00:00 +27°C° 0 mm 2 m/s 752 mmHg 38%
    01:00 +26°C° 0 mm 2 m/s 752 mmHg 38%
    02:00 +26°C° 0 mm 2 m/s 752 mmHg 39%
    03:00 +25°C° 0 mm 2 m/s 752 mmHg 39%
    04:00 +25°C° 0 mm 1 m/s 752 mmHg 38%
    05:00 +25°C° 0 mm 1 m/s 753 mmHg 38%
    06:00 +25°C° 0 mm 1 m/s 753 mmHg 37%
    07:00 +27°C° 0 mm 1 m/s 752 mmHg 33%
    08:00 +30°C° 0 mm 2 m/s 752 mmHg 29%
    09:00 +32°C° 0 mm 2 m/s 752 mmHg 25%
    10:00 +34°C° 0 mm 2 m/s 752 mmHg 23%
    11:00 +36°C° 0 mm 3 m/s 751 mmHg 21%
    12:00 +37°C° 0 mm 3 m/s 751 mmHg 19%
    13:00 +37°C° 0 mm 4 m/s 750 mmHg 18%
    14:00 +38°C° 0 mm 4 m/s 750 mmHg 17%
    15:00 +40°C° 0 mm 5 m/s 750 mmHg 17%
    16:00 +38°C° 0 mm 4 m/s 750 mmHg 18%
    17:00 +37°C° 0 mm 4 m/s 750 mmHg 20%
    18:00 +36°C° 0 mm 4 m/s 750 mmHg 21%
    19:00 +34°C° 0 mm 4 m/s 751 mmHg 25%
    20:00 +32°C° 0 mm 5 m/s 751 mmHg 28%
    21:00 +29°C° 0 mm 5 m/s 751 mmHg 31%
    22:00 +28°C° 0 mm 4 m/s 751 mmHg 34%
    23:00 +28°C° 0 mm 3 m/s 751 mmHg 37%
    Arată mai mult